Satellite-Ground Cal/Val Site Overpasses Predictions

Prediction of Satellite NPP Overpassing Cal/Val Site: Antarctic Dome C

Ground Cal/Val Site Location: Latitude: -75.10, Longitude: 123.35; Satellite-Ground Site NADIR distance within 100 km.

Table of predicted overpasses for the next 14.0 days since TLE Epoch: 12/20/2011
Interval Starting Time Ending Time Minimum Distance Time Minimum Distance (km)
1 12/20/2011 15:01:20 12/20/2011 15:01:44 12/20/2011 15:01:32 56.21
2 12/21/2011 14:42:29 12/21/2011 14:42:53 12/21/2011 14:42:41 53.11
3 12/22/2011 07:44:08 12/22/2011 07:44:27 12/22/2011 07:44:18 75.10
4 12/23/2011 07:25:13 12/23/2011 07:25:41 12/23/2011 07:25:27 32.86
5 12/25/2011 15:07:35 12/25/2011 15:07:45 12/25/2011 15:07:40 93.45
6 12/26/2011 14:48:33 12/26/2011 14:49:02 12/26/2011 14:48:48 17.97
7 12/28/2011 07:31:19 12/28/2011 07:31:49 12/28/2011 07:31:34 3.35
8 12/31/2011 14:54:40 12/31/2011 14:55:09 12/31/2011 14:54:55 17.98
9 01/01/2012 14:35:57 01/01/2012 14:36:10 01/01/2012 14:36:03 89.11
10 01/02/2012 07:37:27 01/02/2012 07:37:54 01/02/2012 07:3
